Weather History for Wiscasset, ME

Change the Weather History Date:

Thursday, February 21, 2013

  Actual Average Record
Temperature  
Mean Temperature 27 °F -  
Max Temperature 33 °F 33 °F 48 °F (2003)
Min Temperature 21 °F 14 °F 6 °F (2009)
Degree Days  
Heating Degree Days 38    
Moisture  
Dew Point 13 °F    
Average Humidity 56    
Maximum Humidity 69    
Minimum Humidity 43    
Precipitation  
Precipitation 0.00 in - - ()
Sea Level Pressure  
Sea Level Pressure 29.83 in    
Wind  
Wind Speed 6 mph (NW)    
Max Wind Speed 12 mph    
Max Gust Speed 17 mph    
Visibility 10 miles    
Events Snow    
Averages and records for this station are not official NWS values.
T = Trace of Precipitation, MM = Missing Value Source: NWS Daily Summary

Daily Weather History Graph

Daily Weather History Graph

Search for Another Location

Airport:

Trip Planner

Search our weather history database for the weather conditions in past years. The results will help you decide how hot, cold, wet, or windy it might be!

Date:

Astronomy

Feb. 21, 2013 Rise Set
Actual Time 6:28 AM EST 5:17 PM EST
Civil Twilight 5:59 AM EST 5:46 PM EST
Nautical Twilight 5:25 AM EST 6:19 PM EST
Astronomical Twilight 4:52 AM EST 6:53 PM EST
Moon 1:23 PM EST (2/21) 3:36 AM EST (2/21)
Length of Visible Light 11h 47m
Length of Day
10h 48m
Waxing Gibbous, 83% of the Moon is Illuminated
Feb 21
Waxing Gibbous
Feb 25
Full
Mar 4
Last Quarter
Mar 11
New
Mar 19
First Quarter

Hourly Weather History & Observations

Time (EST) Temp. Windchill Dew Point Humidity Pressure Visibility Wind Dir Wind Speed Gust Speed Precip Events Conditions
12:53 AM 28.0 °F 20.8 °F 12.0 °F 51% 29.66 in 10.0 mi West 6.9 mph - N/A   Overcast
1:53 AM 27.0 °F 19.5 °F 12.0 °F 53% 29.66 in 10.0 mi WNW 6.9 mph - N/A   Partly Cloudy
2:53 AM 27.0 °F 20.5 °F 12.0 °F 53% 29.66 in 10.0 mi Variable 5.8 mph - N/A   Clear
3:53 AM 27.0 °F 21.6 °F 10.0 °F 49% 29.66 in 10.0 mi WNW 4.6 mph - N/A   Clear
4:53 AM 25.0 °F 19.3 °F 7.0 °F 46% 29.68 in 10.0 mi Variable 4.6 mph - N/A   Clear
6:53 AM 21.9 °F - 7.0 °F 53% 29.73 in 10.0 mi Calm Calm - N/A   Clear
7:53 AM 23.0 °F - 6.1 °F 48% 29.75 in 10.0 mi Calm Calm - N/A   Clear
8:53 AM 24.1 °F 18.2 °F 7.0 °F 48% 29.76 in 10.0 mi Variable 4.6 mph - N/A   Clear
9:53 AM 26.1 °F 15.6 °F 6.1 °F 43% 29.76 in 10.0 mi NNW 11.5 mph 16.1 mph N/A   Clear
10:53 AM 25.0 °F 19.3 °F 6.1 °F 45% 29.76 in 10.0 mi Variable 4.6 mph - N/A   Partly Cloudy
11:53 AM 25.0 °F 19.3 °F 7.0 °F 46% 29.77 in 10.0 mi Variable 4.6 mph - N/A   Overcast
12:53 PM 26.1 °F 18.4 °F 9.0 °F 49% 29.77 in 10.0 mi Variable 6.9 mph 16.1 mph N/A   Overcast
1:53 PM 26.1 °F 18.4 °F 10.9 °F 53% 29.78 in 10.0 mi Variable 6.9 mph - N/A   Overcast
2:53 PM 26.1 °F 19.4 °F 12.9 °F 58% 29.80 in 7.0 mi Variable 5.8 mph - 0.00 in Snow Light Snow
3:53 PM 26.1 °F 16.8 °F 16.0 °F 66% 29.83 in 7.0 mi NW 9.2 mph - 0.00 in Snow Light Snow
4:53 PM 26.1 °F 21.9 °F 17.1 °F 69% 29.86 in 10.0 mi Variable 3.5 mph - 0.00 in   Overcast
5:53 PM 27.0 °F 19.5 °F 17.1 °F 66% 29.90 in 10.0 mi Variable 6.9 mph - N/A   Overcast
6:53 PM 28.0 °F 22.8 °F 17.1 °F 63% 29.95 in 10.0 mi Variable 4.6 mph - N/A   Overcast
7:53 PM 32.0 °F 24.8 °F 19.9 °F 61% 29.99 in 10.0 mi NNW 8.1 mph - N/A   Overcast
8:53 PM 33.1 °F 27.7 °F 21.0 °F 61% 30.03 in 10.0 mi Variable 5.8 mph - N/A   Overcast
9:53 PM 32.0 °F 24.2 °F 21.9 °F 66% 30.06 in 10.0 mi North 9.2 mph 17.3 mph N/A   Mostly Cloudy
10:53 PM 32.0 °F 27.5 °F 21.9 °F 66% 30.09 in 10.0 mi Variable 4.6 mph - N/A   Clear
11:53 PM 32.0 °F 26.4 °F 21.9 °F 66% 30.14 in 10.0 mi Variable 5.8 mph - N/A   Mostly Cloudy